Time,TemperatureF,DewpointF,PressureIn,WindDirection,WindDirectionDegrees,WindSpeedMPH,WindSpeedGustMPH,Humidity,HourlyPrecipIn,Conditions,Clouds,dailyrainin,SoftwareType,DateUTC
2013-02-23 00:01:00,66.8,63.8,30.08,NNE,16,21.0,49.0,90,0.00,,,0.00,Weather View 32 v70,2013-02-23 10:01:00,
2013-02-23 00:06:00,66.7,63.7,30.08,North,2,24.0,49.0,90,0.00,,,0.00,Weather View 32 v70,2013-02-23 10:06:00,
2013-02-23 00:11:00,66.7,63.7,30.08,North,359,18.0,49.0,90,0.00,,,0.00,Weather View 32 v70,2013-02-23 10:11:00,
2013-02-23 00:16:00,66.7,63.7,30.09,NNW,345,28.0,49.0,90,0.00,,,0.00,Weather View 32 v70,2013-02-23 10:16:00,
2013-02-23 00:21:00,66.7,63.7,30.09,North,4,30.0,49.0,90,0.00,,,0.00,Weather View 32 v70,2013-02-23 10:21:00,
2013-02-23 00:26:00,66.6,63.6,30.09,NNW,346,23.0,49.0,90,0.00,,,0.00,Weather View 32 v70,2013-02-23 10:26:00,
2013-02-23 00:31:00,66.6,63.6,30.10,NNW,343,23.0,49.0,90,0.00,,,0.00,Weather View 32 v70,2013-02-23 10:31:00,
2013-02-23 00:36:00,66.5,63.5,30.10,North,357,27.0,49.0,90,0.00,,,0.00,Weather View 32 v70,2013-02-23 10:36:00,
2013-02-23 00:41:00,66.5,63.1,30.11,NNW,343,19.0,49.0,89,0.00,,,0.00,Weather View 32 v70,2013-02-23 10:41:00,
2013-02-23 00:46:00,66.6,63.6,30.10,North,353,22.0,49.0,90,0.00,,,0.00,Weather View 32 v70,2013-02-23 10:46:00,
2013-02-23 00:51:00,66.5,63.5,30.11,NNW,339,16.0,49.0,90,0.00,,,0.00,Weather View 32 v70,2013-02-23 10:51:00,
2013-02-23 00:56:00,66.3,63.3,30.10,NNW,343,23.0,49.0,90,0.00,,,0.00,Weather View 32 v70,2013-02-23 10:56:00,
2013-02-23 01:01:00,66.2,63.5,30.09,NNW,337,27.0,43.0,91,0.00,,,0.00,Weather View 32 v70,2013-02-23 11:01:00,
2013-02-23 01:06:00,66.1,63.4,30.09,North,5,27.0,43.0,91,0.00,,,0.00,Weather View 32 v70,2013-02-23 11:06:00,
2013-02-23 01:11:00,65.9,63.2,30.10,North,350,24.0,42.0,91,0.00,,,0.00,Weather View 32 v70,2013-02-23 11:11:00,
2013-02-23 01:16:00,65.7,62.7,30.09,North,1,26.0,41.0,90,0.00,,,0.00,Weather View 32 v70,2013-02-23 11:16:00,
2013-02-23 01:21:00,65.8,62.8,30.11,NNW,337,16.0,41.0,90,0.00,,,0.00,Weather View 32 v70,2013-02-23 11:21:00,
2013-02-23 01:26:00,65.8,62.5,30.09,NW,306,28.0,41.0,89,0.00,,,0.00,Weather View 32 v70,2013-02-23 11:26:00,
2013-02-23 01:31:00,65.9,62.2,30.10,North,352,23.0,42.0,88,0.00,,,0.00,Weather View 32 v70,2013-02-23 11:31:00,
2013-02-23 01:36:00,66.0,62.0,30.07,NNW,337,33.0,42.0,87,0.00,,,0.00,Weather View 32 v70,2013-02-23 11:36:00,
2013-02-23 01:41:00,66.2,61.5,30.10,NNW,335,31.0,42.0,85,0.00,,,0.00,Weather View 32 v70,2013-02-23 11:41:00,
2013-02-23 01:46:00,66.6,61.3,30.09,NNW,339,32.0,42.0,83,0.00,,,0.00,Weather View 32 v70,2013-02-23 11:46:00,
2013-02-23 01:51:00,66.6,61.3,30.09,NNW,337,23.0,42.0,83,0.00,,,0.00,Weather View 32 v70,2013-02-23 11:51:00,
2013-02-23 01:56:00,66.6,60.6,30.07,NNW,334,18.0,42.0,81,0.00,,,0.00,Weather View 32 v70,2013-02-23 11:56:00,
2013-02-23 02:01:00,66.6,60.6,30.09,North,4,20.0,42.0,81,0.00,,,0.00,Weather View 32 v70,2013-02-23 12:01:00,
2013-02-23 02:06:00,66.6,60.2,30.09,NNW,330,22.0,45.0,80,0.00,,,0.00,Weather View 32 v70,2013-02-23 12:06:00,
2013-02-23 02:11:00,66.8,60.1,30.08,North,350,28.0,45.0,79,0.00,,,0.00,Weather View 32 v70,2013-02-23 12:11:00,
2013-02-23 02:16:00,67.2,60.1,30.06,North,7,25.0,45.0,78,0.00,,,0.00,Weather View 32 v70,2013-02-23 12:16:00,
2013-02-23 02:21:00,67.3,59.5,30.06,North,10,17.0,45.0,76,0.00,,,0.00,Weather View 32 v70,2013-02-23 12:21:00,
2013-02-23 02:26:00,67.0,59.9,30.08,NNW,339,32.0,45.0,78,0.00,,,0.00,Weather View 32 v70,2013-02-23 12:26:00,
2013-02-23 02:31:00,67.0,59.9,30.06,NW,317,34.0,45.0,78,0.00,,,0.00,Weather View 32 v70,2013-02-23 12:31:00,
2013-02-23 02:36:00,67.4,59.5,30.07,North,8,34.0,45.0,76,0.00,,,0.00,Weather View 32 v70,2013-02-23 12:36:00,
2013-02-23 02:41:00,67.1,60.0,30.06,North,4,34.0,49.0,78,0.00,,,0.00,Weather View 32 v70,2013-02-23 12:41:00,
2013-02-23 02:46:00,67.0,59.5,30.07,North,351,32.0,49.0,77,0.00,,,0.00,Weather View 32 v70,2013-02-23 12:46:00,
2013-02-23 02:51:00,67.1,58.5,30.05,NNW,347,17.0,49.0,74,0.00,,,0.00,Weather View 32 v70,2013-02-23 12:51:00,
2013-02-23 02:56:00,67.6,57.8,30.06,North,353,27.0,49.0,71,0.00,,,0.00,Weather View 32 v70,2013-02-23 12:56:00,
2013-02-23 03:01:00,67.3,58.7,30.06,North,7,33.0,49.0,74,0.00,,,0.00,Weather View 32 v70,2013-02-23 13:01:00,
2013-02-23 03:06:00,67.8,57.6,30.07,North,353,35.0,49.0,70,0.00,,,0.00,Weather View 32 v70,2013-02-23 13:06:00,
2013-02-23 03:11:00,68.1,59.5,30.05,North,1,27.0,49.0,74,0.00,,,0.00,Weather View 32 v70,2013-02-23 13:11:00,
2013-02-23 03:16:00,68.6,59.2,30.05,NE,36,19.0,49.0,72,0.00,,,0.00,Weather View 32 v70,2013-02-23 13:16:00,
2013-02-23 03:21:00,68.7,58.9,30.05,North,2,29.0,49.0,71,0.00,,,0.00,Weather View 32 v70,2013-02-23 13:21:00,
2013-02-23 03:26:00,68.9,58.3,30.05,North,359,35.0,49.0,69,0.00,,,0.00,Weather View 32 v70,2013-02-23 13:26:00,
2013-02-23 03:31:00,68.7,57.7,30.06,NNW,334,25.0,49.0,68,0.00,,,0.00,Weather View 32 v70,2013-02-23 13:31:00,
2013-02-23 03:36:00,68.5,57.5,30.05,NNW,332,30.0,49.0,68,0.00,,,0.00,Weather View 32 v70,2013-02-23 13:36:00,
2013-02-23 03:41:00,68.3,57.7,30.06,NNW,347,25.0,44.0,69,0.00,,,0.00,Weather View 32 v70,2013-02-23 13:41:00,
2013-02-23 03:46:00,68.5,57.5,30.05,NNW,339,22.0,44.0,68,0.00,,,0.00,Weather View 32 v70,2013-02-23 13:46:00,
2013-02-23 03:51:00,68.7,57.7,30.05,NW,317,11.0,44.0,68,0.00,,,0.00,Weather View 32 v70,2013-02-23 13:51:00,
2013-02-23 03:56:00,69.0,57.6,30.05,North,8,17.0,44.0,67,0.00,,,0.00,Weather View 32 v70,2013-02-23 13:56:00,
2013-02-23 04:01:00,68.9,57.5,30.06,NW,326,16.0,44.0,67,0.00,,,0.00,Weather View 32 v70,2013-02-23 14:01:00,
2013-02-23 04:06:00,69.1,57.2,30.05,NNW,331,18.0,44.0,66,0.00,,,0.00,Weather View 32 v70,2013-02-23 14:06:00,
2013-02-23 04:11:00,69.0,57.6,30.05,North,8,15.0,44.0,67,0.00,,,0.00,Weather View 32 v70,2013-02-23 14:11:00,
2013-02-23 04:16:00,68.6,57.6,30.05,NNW,340,22.0,44.0,68,0.00,,,0.00,Weather View 32 v70,2013-02-23 14:16:00,
2013-02-23 04:21:00,68.2,57.6,30.06,North,360,14.0,39.0,69,0.00,,,0.00,Weather View 32 v70,2013-02-23 14:21:00,
2013-02-23 04:26:00,67.2,57.4,30.04,North,3,29.0,39.0,71,0.00,,,0.00,Weather View 32 v70,2013-02-23 14:26:00,
2013-02-23 04:31:00,66.7,57.4,30.05,NNE,12,20.0,38.0,72,0.00,,,0.00,Weather View 32 v70,2013-02-23 14:31:00,
2013-02-23 04:36:00,66.9,57.6,30.05,NNE,20,36.0,40.0,72,0.00,,,0.00,Weather View 32 v70,2013-02-23 14:36:00,
2013-02-23 04:41:00,66.9,57.9,30.05,NNW,347,28.0,40.0,73,0.00,,,0.00,Weather View 32 v70,2013-02-23 14:41:00,
2013-02-23 04:46:00,66.6,58.0,30.03,North,349,12.0,42.0,74,0.00,,,0.00,Weather View 32 v70,2013-02-23 14:46:00,
2013-02-23 04:51:00,66.6,58.0,30.03,NNW,333,28.0,42.0,74,0.00,,,0.00,Weather View 32 v70,2013-02-23 14:51:00,
2013-02-23 04:56:00,66.6,58.0,30.05,NNE,24,19.0,42.0,74,0.00,,,0.00,Weather View 32 v70,2013-02-23 14:56:00,
2013-02-23 05:01:00,66.5,57.9,30.06,NNW,347,17.0,42.0,74,0.00,,,0.00,Weather View 32 v70,2013-02-23 15:01:00,
2013-02-23 05:06:00,66.4,58.2,30.04,NNE,13,23.0,42.0,75,0.00,,,0.00,Weather View 32 v70,2013-02-23 15:06:00,
2013-02-23 05:11:00,66.3,58.8,30.03,NNW,339,38.0,42.0,77,0.00,,,0.00,Weather View 32 v70,2013-02-23 15:11:00,
2013-02-23 05:16:00,66.2,59.5,30.05,North,4,28.0,42.0,79,0.00,,,0.00,Weather View 32 v70,2013-02-23 15:16:00,
2013-02-23 05:21:00,66.2,59.8,30.02,North,355,35.0,43.0,80,0.00,,,0.00,Weather View 32 v70,2013-02-23 15:21:00,
2013-02-23 05:26:00,66.1,60.1,30.05,North,359,24.0,48.0,81,0.00,,,0.00,Weather View 32 v70,2013-02-23 15:26:00,
2013-02-23 05:31:00,65.9,60.2,30.03,North,360,15.0,48.0,82,0.00,,,0.00,Weather View 32 v70,2013-02-23 15:31:00,
2013-02-23 05:37:00,65.7,60.7,30.04,NNE,12,22.0,48.0,84,0.00,,,0.00,Weather View 32 v70,2013-02-23 15:37:00,
2013-02-23 05:42:00,65.4,60.8,30.05,NNW,347,25.0,48.0,85,0.00,,,0.00,Weather View 32 v70,2013-02-23 15:42:00,
2013-02-23 05:47:00,65.2,60.6,30.07,North,352,21.0,48.0,85,0.00,,,0.00,Weather View 32 v70,2013-02-23 15:47:00,
2013-02-23 05:52:00,65.1,60.5,30.07,North,1,28.0,48.0,85,0.00,,,0.00,Weather View 32 v70,2013-02-23 15:52:00,
2013-02-23 05:57:00,65.4,60.4,30.07,NNW,342,21.0,48.0,84,0.00,,,0.00,Weather View 32 v70,2013-02-23 15:57:00,
2013-02-23 06:02:00,65.8,60.5,30.07,NNW,348,37.0,48.0,83,0.00,,,0.00,Weather View 32 v70,2013-02-23 16:02:00,
2013-02-23 06:07:00,65.9,60.6,30.04,North,349,28.0,48.0,83,0.00,,,0.00,Weather View 32 v70,2013-02-23 16:07:00,
2013-02-23 06:12:00,65.7,60.7,30.08,NNW,341,20.0,48.0,84,0.00,,,0.00,Weather View 32 v70,2013-02-23 16:12:00,
2013-02-23 06:17:00,65.7,60.4,30.07,NNW,345,26.0,48.0,83,0.00,,,0.00,Weather View 32 v70,2013-02-23 16:17:00,
2013-02-23 06:22:00,65.6,60.3,30.06,North,357,29.0,48.0,83,0.00,,,0.00,Weather View 32 v70,2013-02-23 16:22:00,
2013-02-23 06:27:00,65.5,60.5,30.06,NNW,344,30.0,47.0,84,0.00,,,0.00,Weather View 32 v70,2013-02-23 16:27:00,
2013-02-23 06:32:00,65.4,60.4,30.05,NNW,327,31.0,44.0,84,0.00,,,0.00,Weather View 32 v70,2013-02-23 16:32:00,
2013-02-23 06:37:00,65.4,60.4,30.09,North,355,29.0,44.0,84,0.00,,,0.00,Weather View 32 v70,2013-02-23 16:37:00,
2013-02-23 06:42:00,65.4,60.4,30.09,North,356,26.0,43.0,84,0.00,,,0.00,Weather View 32 v70,2013-02-23 16:42:00,
2013-02-23 06:47:00,65.7,59.7,30.07,NNE,28,26.0,43.0,81,0.00,,,0.00,Weather View 32 v70,2013-02-23 16:47:00,
2013-02-23 06:52:00,66.5,59.0,30.09,NNW,336,23.0,43.0,77,0.00,,,0.00,Weather View 32 v70,2013-02-23 16:52:00,
2013-02-23 06:57:00,66.7,58.9,30.08,NNW,345,29.0,43.0,76,0.00,,,0.00,Weather View 32 v70,2013-02-23 16:57:00,
2013-02-23 07:02:00,66.9,58.3,30.09,NNE,23,25.0,43.0,74,0.00,,,0.00,Weather View 32 v70,2013-02-23 17:02:00,
2013-02-23 07:07:00,67.4,58.0,30.08,NNW,347,27.0,43.0,72,0.00,,,0.00,Weather View 32 v70,2013-02-23 17:07:00,
2013-02-23 07:12:00,67.9,57.7,30.08,North,355,33.0,43.0,70,0.00,,,0.00,Weather View 32 v70,2013-02-23 17:12:00,
2013-02-23 07:17:00,67.8,57.6,30.08,NNE,26,31.0,43.0,70,0.00,,,0.00,Weather View 32 v70,2013-02-23 17:17:00,
2013-02-23 07:22:00,68.1,57.5,30.09,North,350,24.0,43.0,69,0.00,,,0.00,Weather View 32 v70,2013-02-23 17:22:00,
2013-02-23 07:27:00,68.0,57.8,30.11,NNW,339,18.0,43.0,70,0.00,,,0.00,Weather View 32 v70,2013-02-23 17:27:00,
2013-02-23 07:32:00,67.9,58.1,30.11,NNW,335,33.0,43.0,71,0.00,,,0.00,Weather View 32 v70,2013-02-23 17:32:00,
2013-02-23 07:37:00,68.1,57.9,30.11,North,5,15.0,43.0,70,0.00,,,0.00,Weather View 32 v70,2013-02-23 17:37:00,
2013-02-23 07:42:00,68.2,57.6,30.12,North,10,20.0,43.0,69,0.00,,,0.00,Weather View 32 v70,2013-02-23 17:42:00,
2013-02-23 07:47:00,68.3,57.3,30.11,NW,312,32.0,43.0,68,0.00,,,0.00,Weather View 32 v70,2013-02-23 17:47:00,
2013-02-23 07:52:00,68.5,57.5,30.11,NNW,339,24.0,43.0,68,0.00,,,0.00,Weather View 32 v70,2013-02-23 17:52:00,
2013-02-23 07:57:00,68.3,57.3,30.10,North,351,29.0,43.0,68,0.00,,,0.00,Weather View 32 v70,2013-02-23 17:57:00,
2013-02-23 08:02:00,68.7,57.3,30.11,NW,326,25.0,43.0,67,0.00,,,0.00,Weather View 32 v70,2013-02-23 18:02:00,
2013-02-23 08:07:00,68.8,56.9,30.11,North,349,27.0,43.0,66,0.00,,,0.00,Weather View 32 v70,2013-02-23 18:07:00,
2013-02-23 08:12:00,69.4,56.2,30.10,NNE,24,21.0,39.0,63,0.00,,,0.00,Weather View 32 v70,2013-02-23 18:12:00,
2013-02-23 08:17:00,69.7,56.9,30.09,North,357,31.0,40.0,64,0.00,,,0.00,Weather View 32 v70,2013-02-23 18:17:00,
2013-02-23 08:22:00,69.4,57.5,30.10,NNE,14,27.0,40.0,66,0.00,,,0.00,Weather View 32 v70,2013-02-23 18:22:00,
2013-02-23 08:27:00,69.8,57.0,30.11,North,353,30.0,40.0,64,0.00,,,0.00,Weather View 32 v70,2013-02-23 18:27:00,
2013-02-23 08:32:00,70.6,56.5,30.10,North,357,36.0,40.0,61,0.00,,,0.00,Weather View 32 v70,2013-02-23 18:32:00,
2013-02-23 08:37:00,70.3,56.6,30.11,NNW,339,19.0,40.0,62,0.00,,,0.00,Weather View 32 v70,2013-02-23 18:37:00,
2013-02-23 08:42:00,70.4,57.2,30.10,NNE,18,25.0,40.0,63,0.00,,,0.00,Weather View 32 v70,2013-02-23 18:42:00,
2013-02-23 08:47:00,70.1,57.8,30.10,North,354,24.0,40.0,65,0.00,,,0.00,Weather View 32 v70,2013-02-23 18:47:00,
2013-02-23 08:53:00,70.2,58.3,30.12,NNE,18,35.0,40.0,66,0.00,,,0.00,Weather View 32 v70,2013-02-23 18:53:00,
2013-02-23 08:58:00,68.3,58.9,30.11,North,349,42.0,42.0,72,0.00,,,0.00,Weather View 32 v70,2013-02-23 18:58:00,
2013-02-23 09:03:00,68.1,59.1,30.13,NNE,16,26.0,45.0,73,0.00,,,0.00,Weather View 32 v70,2013-02-23 19:03:00,
2013-02-23 09:10:00,68.2,59.6,30.12,North,354,28.0,45.0,74,0.00,,,0.00,Weather View 32 v70,2013-02-23 19:10:00,
2013-02-23 09:15:00,68.1,60.6,30.12,NNW,339,24.0,45.0,77,0.00,,,0.00,Weather View 32 v70,2013-02-23 19:15:00,
2013-02-23 09:17:00,68.2,59.9,30.12,NNW,343,34.0,45.0,75,0.00,,,0.00,Weather View 32 v70,2013-02-23 19:17:00,
2013-02-23 09:26:00,68.4,60.9,30.10,NNW,341,29.0,45.0,77,0.00,,,0.00,Weather View 32 v70,2013-02-23 19:26:00,
2013-02-23 09:31:00,68.6,61.1,30.12,North,2,20.0,45.0,77,0.00,,,0.00,Weather View 32 v70,2013-02-23 19:31:00,
2013-02-23 09:36:00,68.8,60.9,30.11,North,349,33.0,45.0,76,0.00,,,0.00,Weather View 32 v70,2013-02-23 19:36:00,
2013-02-23 09:44:00,68.8,61.3,30.12,NW,317,23.0,45.0,77,0.00,,,0.00,Weather View 32 v70,2013-02-23 19:44:00,
2013-02-23 09:49:00,69.0,61.5,30.12,North,355,24.0,45.0,77,0.00,,,0.00,Weather View 32 v70,2013-02-23 19:49:00,
2013-02-23 09:54:00,68.6,60.7,30.11,NNW,340,30.0,45.0,76,0.00,,,0.00,Weather View 32 v70,2013-02-23 19:54:00,
2013-02-23 09:59:00,68.4,61.2,30.12,North,359,23.0,45.0,78,0.00,,,0.00,Weather View 32 v70,2013-02-23 19:59:00,
2013-02-23 10:05:00,68.8,61.3,30.13,North,359,13.0,43.0,77,0.00,,,0.00,Weather View 32 v70,2013-02-23 20:05:00,
2013-02-23 10:10:00,68.8,61.3,30.10,North,4,23.0,43.0,77,0.00,,,0.00,Weather View 32 v70,2013-02-23 20:10:00,
2013-02-23 10:13:00,68.8,61.3,30.12,North,2,24.0,43.0,77,0.00,,,0.00,Weather View 32 v70,2013-02-23 20:13:00,
2013-02-23 10:18:00,69.0,61.5,30.11,NNW,331,24.0,43.0,77,0.00,,,0.00,Weather View 32 v70,2013-02-23 20:18:00,
2013-02-23 10:24:00,69.2,61.3,30.11,NNE,19,28.0,43.0,76,0.00,,,0.00,Weather View 32 v70,2013-02-23 20:24:00,
2013-02-23 10:29:00,68.8,61.6,30.11,North,351,26.0,43.0,78,0.00,,,0.00,Weather View 32 v70,2013-02-23 20:29:00,
2013-02-23 10:35:00,68.9,61.0,30.10,NNW,332,25.0,43.0,76,0.00,,,0.00,Weather View 32 v70,2013-02-23 20:35:00,
2013-02-23 10:40:00,69.4,61.9,30.12,NNW,345,11.0,43.0,77,0.00,,,0.00,Weather View 32 v70,2013-02-23 20:40:00,
2013-02-23 10:45:00,69.5,61.6,30.10,North,349,27.0,40.0,76,0.00,,,0.00,Weather View 32 v70,2013-02-23 20:45:00,
2013-02-23 10:51:00,69.6,60.9,30.10,North,356,30.0,40.0,74,0.00,,,0.00,Weather View 32 v70,2013-02-23 20:51:00,
2013-02-23 11:00:00,69.6,61.3,30.09,NNW,336,31.0,40.0,75,0.00,,,0.00,Weather View 32 v70,2013-02-23 21:00:00,
2013-02-23 11:05:00,69.9,62.0,30.11,NNE,18,29.0,40.0,76,0.00,,,0.00,Weather View 32 v70,2013-02-23 21:05:00,
2013-02-23 11:09:00,69.4,61.5,30.08,North,4,33.0,44.0,76,0.00,,,0.00,Weather View 32 v70,2013-02-23 21:09:00,
2013-02-23 11:10:00,69.1,61.9,30.08,North,10,29.0,44.0,78,0.00,,,0.00,Weather View 32 v70,2013-02-23 21:10:00,
2013-02-23 11:14:00,68.8,62.0,30.10,NNW,341,30.0,44.0,79,0.00,,,0.00,Weather View 32 v70,2013-02-23 21:14:00,
2013-02-23 11:25:00,69.4,62.6,30.10,NNW,345,27.0,44.0,79,0.00,,,0.00,Weather View 32 v70,2013-02-23 21:25:00,
2013-02-23 11:32:00,69.7,62.5,30.11,NE,49,16.0,44.0,78,0.00,,,0.00,Weather View 32 v70,2013-02-23 21:32:00,
2013-02-23 11:38:00,69.9,62.3,30.11,NNE,14,21.0,44.0,77,0.00,,,0.00,Weather View 32 v70,2013-02-23 21:38:00,
2013-02-23 11:44:00,70.0,61.7,30.11,North,6,33.0,44.0,75,0.00,,,0.00,Weather View 32 v70,2013-02-23 21:44:00,
2013-02-23 11:45:00,70.0,62.1,30.11,North,7,36.0,44.0,76,0.00,,,0.00,Weather View 32 v70,2013-02-23 21:45:00,
2013-02-23 11:49:00,70.6,61.9,30.09,NE,42,27.0,44.0,74,0.00,,,0.00,Weather View 32 v70,2013-02-23 21:49:00,
2013-02-23 11:50:00,70.6,61.9,30.10,North,351,18.0,44.0,74,0.00,,,0.00,Weather View 32 v70,2013-02-23 21:50:00,
2013-02-23 11:54:00,70.0,62.1,30.08,NNE,24,31.0,44.0,76,0.00,,,0.00,Weather View 32 v70,2013-02-23 21:54:00,
2013-02-23 11:55:00,70.0,62.1,30.08,North,11,26.0,44.0,76,0.00,,,0.00,Weather View 32 v70,2013-02-23 21:55:00,
2013-02-23 12:00:00,69.5,61.9,30.07,North,2,38.0,44.0,77,0.00,,,0.00,Weather View 32 v70,2013-02-23 22:00:00,
2013-02-23 12:08:00,69.4,61.9,30.06,North,1,33.0,48.0,77,0.00,,,0.00,Weather View 32 v70,2013-02-23 22:08:00,
2013-02-23 12:14:00,70.0,62.4,30.08,North,359,31.0,48.0,77,0.00,,,0.00,Weather View 32 v70,2013-02-23 22:14:00,
2013-02-23 12:19:00,70.4,61.7,30.09,NNW,331,25.0,48.0,74,0.00,,,0.00,Weather View 32 v70,2013-02-23 22:19:00,
2013-02-23 12:25:00,70.8,61.7,30.07,North,10,23.0,48.0,73,0.00,,,0.00,Weather View 32 v70,2013-02-23 22:25:00,
2013-02-23 12:30:00,71.0,61.5,30.07,NNE,17,27.0,48.0,72,0.00,,,0.00,Weather View 32 v70,2013-02-23 22:30:00,
2013-02-23 12:35:00,70.9,61.4,30.06,NNW,339,25.0,48.0,72,0.00,,,0.00,Weather View 32 v70,2013-02-23 22:35:00,
2013-02-23 12:41:00,70.9,60.2,30.08,North,11,23.0,48.0,69,0.00,,,0.00,Weather View 32 v70,2013-02-23 22:41:00,
2013-02-23 12:45:00,71.5,60.3,30.05,North,5,28.0,48.0,68,0.00,,,0.00,Weather View 32 v70,2013-02-23 22:45:00,
2013-02-23 12:46:00,71.2,60.5,30.06,NNE,18,32.0,48.0,69,0.00,,,0.00,Weather View 32 v70,2013-02-23 22:46:00,
2013-02-23 12:50:00,70.2,60.7,30.06,North,4,30.0,48.0,72,0.00,,,0.00,Weather View 32 v70,2013-02-23 22:50:00,
2013-02-23 12:53:00,70.2,61.1,30.07,North,349,33.0,48.0,73,0.00,,,0.00,Weather View 32 v70,2013-02-23 22:53:00,
2013-02-23 12:55:00,70.1,61.0,30.05,NNW,343,26.0,48.0,73,0.00,,,0.00,Weather View 32 v70,2013-02-23 22:55:00,
2013-02-23 12:58:00,70.3,62.0,30.07,NNE,20,16.0,48.0,75,0.00,,,0.00,Weather View 32 v70,2013-02-23 22:58:00,
2013-02-23 13:00:00,70.1,61.8,30.07,North,353,28.0,48.0,75,0.00,,,0.00,Weather View 32 v70,2013-02-23 23:00:00,
2013-02-23 13:03:00,70.0,62.1,30.06,North,349,20.0,40.0,76,0.00,,,0.00,Weather View 32 v70,2013-02-23 23:03:00,
2013-02-23 13:05:00,70.3,62.3,30.07,NNE,12,20.0,40.0,76,0.00,,,0.00,Weather View 32 v70,2013-02-23 23:05:00,
2013-02-23 13:09:00,70.0,62.1,30.05,NNW,347,31.0,40.0,76,0.00,,,0.00,Weather View 32 v70,2013-02-23 23:09:00,
2013-02-23 13:15:00,70.0,62.1,30.06,North,9,25.0,40.0,76,0.00,,,0.00,Weather View 32 v70,2013-02-23 23:15:00,
2013-02-23 13:39:00,68.8,62.4,30.05,North,5,30.0,44.0,80,0.00,,,0.00,Weather View 32 v70,2013-02-23 23:39:00,
2013-02-23 13:45:00,69.6,62.0,30.07,NNW,342,25.0,44.0,77,0.00,,,0.00,Weather View 32 v70,2013-02-23 23:45:00,
2013-02-23 13:50:00,69.5,61.2,30.05,NNW,337,13.0,44.0,75,0.00,,,0.00,Weather View 32 v70,2013-02-23 23:50:00,
2013-02-23 13:55:00,69.3,61.8,30.05,North,8,25.0,44.0,77,0.00,,,0.00,Weather View 32 v70,2013-02-23 23:55:00,
2013-02-23 14:01:00,69.6,62.0,30.05,North,1,22.0,44.0,77,0.00,,,0.00,Weather View 32 v70,2013-02-24 00:01:00,
2013-02-23 14:07:00,69.5,61.6,30.04,North,353,29.0,44.0,76,0.00,,,0.00,Weather View 32 v70,2013-02-24 00:07:00,
2013-02-23 14:10:00,69.4,62.2,30.05,NNE,25,24.0,44.0,78,0.00,,,0.00,Weather View 32 v70,2013-02-24 00:10:00,
2013-02-23 14:15:00,69.2,62.0,30.04,North,352,28.0,44.0,78,0.00,,,0.00,Weather View 32 v70,2013-02-24 00:15:00,
2013-02-23 14:20:00,69.0,62.2,30.03,North,350,36.0,44.0,79,0.00,,,0.00,Weather View 32 v70,2013-02-24 00:20:00,
2013-02-23 14:26:00,69.2,62.0,30.03,NNE,18,32.0,42.0,78,0.00,,,0.00,Weather View 32 v70,2013-02-24 00:26:00,
2013-02-23 14:32:00,69.7,61.8,30.01,North,359,21.0,42.0,76,0.00,,,0.00,Weather View 32 v70,2013-02-24 00:32:00,
2013-02-23 14:40:00,69.6,61.3,30.02,North,359,20.0,42.0,75,0.00,,,0.00,Weather View 32 v70,2013-02-24 00:40:00,
2013-02-23 14:46:00,69.5,61.2,30.03,North,7,26.0,42.0,75,0.00,,,0.00,Weather View 32 v70,2013-02-24 00:46:00,
2013-02-23 14:50:00,69.0,60.7,30.04,North,6,18.0,42.0,75,0.00,,,0.00,Weather View 32 v70,2013-02-24 00:50:00,
2013-02-23 14:51:00,69.0,61.1,30.04,ENE,58,13.0,42.0,76,0.00,,,0.00,Weather View 32 v70,2013-02-24 00:51:00,
2013-02-23 14:57:00,69.2,60.5,30.04,NNE,33,14.0,42.0,74,0.00,,,0.00,Weather View 32 v70,2013-02-24 00:57:00,
2013-02-23 15:02:00,69.6,60.5,30.02,North,10,20.0,42.0,73,0.00,,,0.00,Weather View 32 v70,2013-02-24 01:02:00,
2013-02-23 15:07:00,69.5,60.0,30.04,NNW,331,30.0,42.0,72,0.00,,,0.00,Weather View 32 v70,2013-02-24 01:07:00,
2013-02-23 15:13:00,69.4,60.3,30.03,NNE,12,24.0,42.0,73,0.00,,,0.00,Weather View 32 v70,2013-02-24 01:13:00,
2013-02-23 15:19:00,69.3,61.0,30.03,North,356,33.0,43.0,75,0.00,,,0.00,Weather View 32 v70,2013-02-24 01:19:00,
2013-02-23 15:25:00,69.0,61.5,30.01,North,8,31.0,43.0,77,0.00,,,0.00,Weather View 32 v70,2013-02-24 01:25:00,
2013-02-23 15:30:00,68.5,61.7,30.01,North,352,34.0,43.0,79,0.00,,,0.00,Weather View 32 v70,2013-02-24 01:30:00,
2013-02-23 15:32:00,68.5,61.7,30.02,NNE,18,25.0,43.0,79,0.00,,,0.00,Weather View 32 v70,2013-02-24 01:32:00,
2013-02-23 15:35:00,68.4,61.2,30.02,North,1,36.0,43.0,78,0.00,,,0.00,Weather View 32 v70,2013-02-24 01:35:00,
2013-02-23 15:40:00,68.4,61.2,30.03,NNW,339,26.0,43.0,78,0.00,,,0.00,Weather View 32 v70,2013-02-24 01:40:00,
2013-02-23 15:46:00,68.3,61.2,30.02,NNE,20,18.0,43.0,78,0.00,,,0.00,Weather View 32 v70,2013-02-24 01:46:00,
2013-02-23 15:51:00,68.5,61.0,30.04,North,350,33.0,43.0,77,0.00,,,0.00,Weather View 32 v70,2013-02-24 01:51:00,
2013-02-23 15:57:00,68.6,61.1,30.03,NNW,339,23.0,43.0,77,0.00,,,0.00,Weather View 32 v70,2013-02-24 01:57:00,
2013-02-23 16:03:00,68.5,61.3,30.02,North,360,21.0,43.0,78,0.00,,,0.00,Weather View 32 v70,2013-02-24 02:03:00,
2013-02-23 16:09:00,68.5,61.7,30.04,NNW,331,20.0,43.0,79,0.00,,,0.00,Weather View 32 v70,2013-02-24 02:09:00,
2013-02-23 16:14:00,68.5,61.3,30.04,NW,309,22.0,43.0,78,0.00,,,0.00,Weather View 32 v70,2013-02-24 02:14:00,
2013-02-23 16:20:00,68.3,61.5,30.03,NNW,344,25.0,43.0,79,0.00,,,0.00,Weather View 32 v70,2013-02-24 02:20:00,
2013-02-23 16:26:00,68.2,61.8,30.03,NNW,345,19.0,43.0,80,0.00,,,0.00,Weather View 32 v70,2013-02-24 02:26:00,
2013-02-23 16:34:00,67.8,62.1,30.02,NNW,339,30.0,43.0,82,0.00,,,0.00,Weather View 32 v70,2013-02-24 02:34:00,
2013-02-23 16:39:00,67.7,61.6,30.04,NW,323,17.0,41.0,81,0.00,,,0.00,Weather View 32 v70,2013-02-24 02:39:00,
2013-02-23 16:49:00,67.9,61.5,30.04,NNW,328,13.0,41.0,80,0.00,,,0.00,Weather View 32 v70,2013-02-24 02:49:00,
2013-02-23 16:50:00,67.8,61.4,30.04,NNW,340,37.0,41.0,80,0.00,,,0.00,Weather View 32 v70,2013-02-24 02:50:00,
2013-02-23 16:54:00,67.6,61.5,30.06,NNE,15,14.0,40.0,81,0.00,,,0.00,Weather View 32 v70,2013-02-24 02:54:00,
2013-02-23 16:59:00,67.6,61.5,30.05,NNW,337,26.0,40.0,81,0.00,,,0.00,Weather View 32 v70,2013-02-24 02:59:00,
2013-02-23 17:05:00,67.5,61.4,30.03,NNW,337,19.0,40.0,81,0.00,,,0.00,Weather View 32 v70,2013-02-24 03:05:00,
2013-02-23 17:11:00,67.5,61.4,30.06,NNW,339,11.0,40.0,81,0.00,,,0.00,Weather View 32 v70,2013-02-24 03:11:00,
2013-02-23 17:16:00,67.5,61.4,30.06,NNW,348,24.0,40.0,81,0.00,,,0.00,Weather View 32 v70,2013-02-24 03:16:00,
2013-02-23 17:22:00,67.5,61.1,30.04,North,352,29.0,40.0,80,0.00,,,0.00,Weather View 32 v70,2013-02-24 03:22:00,
2013-02-23 17:25:00,67.4,61.0,30.03,NW,322,19.0,40.0,80,0.00,,,0.00,Weather View 32 v70,2013-02-24 03:25:00,
2013-02-23 17:28:00,67.6,60.8,30.06,NW,318,28.0,40.0,79,0.00,,,0.00,Weather View 32 v70,2013-02-24 03:28:00,
2013-02-23 17:30:00,67.6,60.8,30.05,North,5,16.0,41.0,79,0.00,,,0.00,Weather View 32 v70,2013-02-24 03:30:00,
2013-02-23 17:33:00,67.6,60.8,30.06,NNW,341,23.0,41.0,79,0.00,,,0.00,Weather View 32 v70,2013-02-24 03:33:00,
2013-02-23 17:39:00,67.6,60.8,30.07,NW,307,17.0,41.0,79,0.00,,,0.00,Weather View 32 v70,2013-02-24 03:39:00,
2013-02-23 17:44:00,67.5,61.1,30.06,NE,34,18.0,41.0,80,0.00,,,0.00,Weather View 32 v70,2013-02-24 03:44:00,
2013-02-23 17:50:00,67.5,61.1,30.07,North,355,17.0,41.0,80,0.00,,,0.00,Weather View 32 v70,2013-02-24 03:50:00,
2013-02-23 17:55:00,67.6,61.2,30.07,NE,38,15.0,41.0,80,0.00,,,0.00,Weather View 32 v70,2013-02-24 03:55:00,
2013-02-23 18:00:00,67.5,61.4,30.07,NNW,334,14.0,41.0,81,0.00,,,0.00,Weather View 32 v70,2013-02-24 04:00:00,
2013-02-23 18:05:00,67.3,61.6,30.08,NNW,342,20.0,41.0,82,0.00,,,0.00,Weather View 32 v70,2013-02-24 04:05:00,
2013-02-23 18:10:00,67.1,61.7,30.08,North,1,9.0,41.0,83,0.00,,,0.00,Weather View 32 v70,2013-02-24 04:10:00,
2013-02-23 18:15:00,67.0,62.0,30.08,NNW,338,16.0,41.0,84,0.00,,,0.00,Weather View 32 v70,2013-02-24 04:15:00,
2013-02-23 18:20:00,66.6,61.6,30.08,North,1,18.0,41.0,84,0.00,,,0.00,Weather View 32 v70,2013-02-24 04:20:00,
2013-02-23 18:25:00,66.5,61.8,30.08,North,10,21.0,41.0,85,0.00,,,0.00,Weather View 32 v70,2013-02-24 04:25:00,
2013-02-23 18:30:00,66.5,62.2,30.07,NNW,346,26.0,39.0,86,0.00,,,0.00,Weather View 32 v70,2013-02-24 04:30:00,
2013-02-23 18:35:00,66.4,62.4,30.08,NNE,28,14.0,39.0,87,0.00,,,0.00,Weather View 32 v70,2013-02-24 04:35:00,
2013-02-23 18:40:00,66.4,62.4,30.08,North,353,30.0,39.0,87,0.00,,,0.00,Weather View 32 v70,2013-02-24 04:40:00,
2013-02-23 18:45:00,66.3,62.3,30.09,NNW,330,20.0,38.0,87,0.00,,,0.00,Weather View 32 v70,2013-02-24 04:45:00,
2013-02-23 18:50:00,66.2,62.5,30.09,NNW,347,17.0,38.0,88,0.00,,,0.00,Weather View 32 v70,2013-02-24 04:50:00,
2013-02-23 18:55:00,66.0,62.3,30.09,North,349,22.0,38.0,88,0.00,,,0.00,Weather View 32 v70,2013-02-24 04:55:00,
2013-02-23 19:00:00,66.2,62.5,30.10,North,353,20.0,38.0,88,0.00,,,0.00,Weather View 32 v70,2013-02-24 05:00:00,
2013-02-23 19:05:00,66.3,62.6,30.10,North,353,31.0,38.0,88,0.00,,,0.00,Weather View 32 v70,2013-02-24 05:05:00,
2013-02-23 19:10:00,66.3,62.9,30.09,NE,35,17.0,38.0,89,0.00,,,0.00,Weather View 32 v70,2013-02-24 05:10:00,
2013-02-23 19:15:00,65.7,62.7,30.09,North,353,25.0,38.0,90,0.00,,,0.00,Weather View 32 v70,2013-02-24 05:15:00,
2013-02-23 19:20:00,65.0,62.3,30.08,NNE,26,20.0,38.0,91,0.00,,,0.00,Weather View 32 v70,2013-02-24 05:20:00,
2013-02-23 19:25:00,64.8,62.1,30.11,North,1,26.0,38.0,91,0.00,,,0.00,Weather View 32 v70,2013-02-24 05:25:00,
2013-02-23 19:30:00,64.7,62.0,30.11,North,353,25.0,38.0,91,0.00,,,0.00,Weather View 32 v70,2013-02-24 05:30:00,
2013-02-23 19:35:00,64.5,61.8,30.12,North,6,27.0,38.0,91,0.00,,,0.00,Weather View 32 v70,2013-02-24 05:35:00,
2013-02-23 19:40:00,64.4,62.0,30.11,North,359,33.0,38.0,92,0.00,,,0.00,Weather View 32 v70,2013-02-24 05:40:00,
2013-02-23 19:45:00,64.4,62.0,30.11,North,350,31.0,38.0,92,0.00,,,0.00,Weather View 32 v70,2013-02-24 05:45:00,
2013-02-23 19:50:00,64.7,62.3,30.09,NNE,12,28.0,41.0,92,0.00,,,0.00,Weather View 32 v70,2013-02-24 05:50:00,
2013-02-23 19:55:00,65.0,62.6,30.11,North,3,33.0,41.0,92,0.00,,,0.00,Weather View 32 v70,2013-02-24 05:55:00,
2013-02-23 20:00:00,65.1,62.7,30.12,North,2,25.0,41.0,92,0.00,,,0.00,Weather View 32 v70,2013-02-24 06:00:00,
2013-02-23 20:05:00,65.0,62.6,30.13,NNE,23,16.0,41.0,92,0.02,,,0.02,Weather View 32 v70,2013-02-24 06:05:00,
2013-02-23 20:10:00,64.7,62.3,30.13,North,8,22.0,41.0,92,0.04,,,0.04,Weather View 32 v70,2013-02-24 06:10:00,
2013-02-23 20:15:00,64.6,61.9,30.11,NNE,16,18.0,41.0,91,0.04,,,0.04,Weather View 32 v70,2013-02-24 06:15:00,
2013-02-23 20:20:00,64.8,61.8,30.12,North,352,24.0,41.0,90,0.04,,,0.04,Weather View 32 v70,2013-02-24 06:20:00,
2013-02-23 20:25:00,64.7,61.4,30.13,North,1,18.0,41.0,89,0.04,,,0.04,Weather View 32 v70,2013-02-24 06:25:00,
2013-02-23 20:30:00,64.6,61.3,30.12,NNW,338,26.0,41.0,89,0.05,,,0.05,Weather View 32 v70,2013-02-24 06:30:00,
2013-02-23 20:35:00,64.5,60.9,30.11,North,359,23.0,41.0,88,0.05,,,0.05,Weather View 32 v70,2013-02-24 06:35:00,
2013-02-23 20:40:00,64.4,60.8,30.12,North,359,15.0,41.0,88,0.05,,,0.05,Weather View 32 v70,2013-02-24 06:40:00,
2013-02-23 20:45:00,64.6,60.6,30.12,North,349,33.0,41.0,87,0.06,,,0.06,Weather View 32 v70,2013-02-24 06:45:00,
2013-02-23 20:50:00,65.2,60.9,30.13,North,5,25.0,40.0,86,0.06,,,0.06,Weather View 32 v70,2013-02-24 06:50:00,
2013-02-23 20:55:00,65.6,61.3,30.12,North,4,28.0,42.0,86,0.06,,,0.06,Weather View 32 v70,2013-02-24 06:55:00,
2013-02-23 21:00:00,65.6,61.3,30.11,North,356,36.0,42.0,86,0.06,,,0.06,Weather View 32 v70,2013-02-24 07:00:00,
2013-02-23 21:05:00,65.5,61.5,30.11,NNW,341,25.0,44.0,87,0.04,,,0.06,Weather View 32 v70,2013-02-24 07:05:00,
2013-02-23 21:10:00,65.3,61.6,30.13,NNW,333,26.0,44.0,88,0.02,,,0.06,Weather View 32 v70,2013-02-24 07:10:00,
2013-02-23 21:15:00,65.5,61.8,30.13,North,357,25.0,44.0,88,0.02,,,0.06,Weather View 32 v70,2013-02-24 07:15:00,
2013-02-23 21:20:00,65.5,61.8,30.11,North,350,35.0,44.0,88,0.02,,,0.06,Weather View 32 v70,2013-02-24 07:20:00,
2013-02-23 21:25:00,65.7,61.7,30.13,North,360,23.0,44.0,87,0.02,,,0.06,Weather View 32 v70,2013-02-24 07:25:00,
2013-02-23 21:30:00,65.8,62.1,30.13,NNW,332,27.0,44.0,88,0.01,,,0.06,Weather View 32 v70,2013-02-24 07:30:00,
2013-02-23 21:35:00,65.8,62.5,30.12,NW,324,20.0,44.0,89,0.01,,,0.06,Weather View 32 v70,2013-02-24 07:35:00,
2013-02-23 21:40:00,65.8,62.8,30.14,NNW,328,23.0,44.0,90,0.01,,,0.06,Weather View 32 v70,2013-02-24 07:40:00,
2013-02-23 21:45:00,65.7,63.0,30.10,North,350,38.0,44.0,91,0.00,,,0.06,Weather View 32 v70,2013-02-24 07:45:00,
2013-02-23 21:50:00,65.7,62.7,30.13,North,9,25.0,44.0,90,0.00,,,0.06,Weather View 32 v70,2013-02-24 07:50:00,
2013-02-23 21:55:00,65.8,62.5,30.11,North,10,31.0,44.0,89,0.00,,,0.06,Weather View 32 v70,2013-02-24 07:55:00,
2013-02-23 22:00:00,65.8,62.1,30.12,North,8,30.0,44.0,88,0.00,,,0.06,Weather View 32 v70,2013-02-24 08:00:00,
2013-02-23 22:05:00,65.9,61.9,30.12,North,8,27.0,43.0,87,0.00,,,0.06,Weather View 32 v70,2013-02-24 08:05:00,
2013-02-23 22:10:00,65.9,61.9,30.12,North,357,30.0,43.0,87,0.00,,,0.06,Weather View 32 v70,2013-02-24 08:10:00,
2013-02-23 22:15:00,65.9,61.6,30.14,NNE,21,24.0,43.0,86,0.00,,,0.06,Weather View 32 v70,2013-02-24 08:15:00,
2013-02-23 22:20:00,66.0,62.0,30.14,North,357,21.0,43.0,87,0.00,,,0.06,Weather View 32 v70,2013-02-24 08:20:00,
2013-02-23 22:25:00,66.0,61.7,30.13,North,4,33.0,42.0,86,0.00,,,0.06,Weather View 32 v70,2013-02-24 08:25:00,
2013-02-23 22:30:00,66.0,61.7,30.13,NNE,15,23.0,42.0,86,0.00,,,0.06,Weather View 32 v70,2013-02-24 08:30:00,
2013-02-23 22:35:00,66.0,61.7,30.12,NNW,345,29.0,40.0,86,0.00,,,0.06,Weather View 32 v70,2013-02-24 08:35:00,
2013-02-23 22:40:00,66.1,61.4,30.13,North,351,27.0,40.0,85,0.00,,,0.06,Weather View 32 v70,2013-02-24 08:40:00,
2013-02-23 22:45:00,66.1,61.4,30.12,NNW,340,29.0,40.0,85,0.00,,,0.06,Weather View 32 v70,2013-02-24 08:45:00,
2013-02-23 22:50:00,66.2,61.5,30.12,NE,37,26.0,39.0,85,0.00,,,0.06,Weather View 32 v70,2013-02-24 08:50:00,
2013-02-23 22:56:00,66.3,61.3,30.11,North,10,25.0,39.0,84,0.00,,,0.06,Weather View 32 v70,2013-02-24 08:56:00,
2013-02-23 23:01:00,66.3,61.6,30.11,North,355,29.0,39.0,85,0.00,,,0.06,Weather View 32 v70,2013-02-24 09:01:00,
2013-02-23 23:06:00,66.2,61.5,30.11,North,359,31.0,39.0,85,0.00,,,0.06,Weather View 32 v70,2013-02-24 09:06:00,
2013-02-23 23:11:00,66.3,61.6,30.12,North,8,21.0,39.0,85,0.00,,,0.06,Weather View 32 v70,2013-02-24 09:11:00,
2013-02-23 23:16:00,66.4,61.7,30.11,North,349,25.0,39.0,85,0.00,,,0.06,Weather View 32 v70,2013-02-24 09:16:00,
2013-02-23 23:21:00,66.3,62.0,30.13,NW,316,20.0,39.0,86,0.00,,,0.06,Weather View 32 v70,2013-02-24 09:21:00,
2013-02-23 23:26:00,66.4,61.7,30.12,NNW,343,24.0,39.0,85,0.00,,,0.06,Weather View 32 v70,2013-02-24 09:26:00,
2013-02-23 23:31:00,66.3,62.0,30.12,NNE,12,19.0,39.0,86,0.00,,,0.06,Weather View 32 v70,2013-02-24 09:31:00,
2013-02-23 23:36:00,66.3,62.0,30.12,North,355,27.0,39.0,86,0.00,,,0.06,Weather View 32 v70,2013-02-24 09:36:00,
2013-02-23 23:41:00,66.4,61.7,30.12,North,11,32.0,39.0,85,0.00,,,0.06,Weather View 32 v70,2013-02-24 09:41:00,
2013-02-23 23:46:00,66.4,61.7,30.12,NNW,342,23.0,39.0,85,0.00,,,0.06,Weather View 32 v70,2013-02-24 09:46:00,
2013-02-23 23:51:00,66.5,61.8,30.10,North,4,32.0,39.0,85,0.00,,,0.06,Weather View 32 v70,2013-02-24 09:51:00,
2013-02-23 23:56:00,66.5,61.8,30.11,North,4,32.0,39.0,85,0.00,,,0.06,Weather View 32 v70,2013-02-24 09:56:00,